Location: Muenchen
(48.1800°N, 11.5800°E)
Time: 06:54:46
(UTC+02:00)

Iridium 36 - Visible Passes

Search period start: 30 August 2016 00:00
Search period end: 09 September 2016 00:00
Orbit: 771 x 775 km, 86.4° (Epoch: 29 August)

Date Brightness Start Highest point End Pass type
(mag) Time Alt. Az. Time Alt. Az. Time Alt. Az.
30 Aug 8.0 20:35:18 10° NNW 20:39:38 27° W 20:43:57 10° SW visible
01 Sep 8.9 21:07:59 10° NW 21:10:01 12° WNW 21:12:03 10° W visible
02 Sep 8.5 20:31:42 10° NNW 20:35:35 22° WNW 20:39:27 10° SW visible
05 Sep 8.7 20:28:15 10° NW 20:31:31 17° WNW 20:34:46 10° WSW visible
06 Sep 8.7 06:07:42 10° ESE 06:11:12 19° ENE 06:14:44 10° NE visible
07 Sep 9.3 05:36:04 10° E 05:36:49 10° ENE 05:37:34 10° ENE visible
08 Sep 9.1 20:25:02 10° NW 20:27:25 13° WNW 20:29:47 10° W visible
